Flag for U.S.A. Weather past 2 weeks in Wilmington, North Carolina, U.S.A.

Now
92 °F

Scattered clouds.


Feels Like: 100 °F
Forecast: 74 / 94 °F
Wind: 5 mph from Northeast

Location: New Hanover International Airport

Current Time: Aug 22, 2014 at 6:07:14 PM

Latest Report: Aug 22, 2014 at 4:53 PM


Visibility: 10 mi

Pressure: 29.93 "Hg

Humidity: 52%

Dew point: 72 °F

Location of WilmingtonLocation

Historic Weather in Wilmington — Graph

°F

Wilmington temperature yesterday

Maximum temperature yesterday: 93 °F (at 12:53 PM)
Minimum temperature yesterday: 74 °F (at 1:53 AM)
Average temperature yesterday: 82 °F

Past Weeks' High & Low Weather Summary

 TemperatureHumidityPressure
High95 °F (Aug 22, 2:53 PM)97% (Aug 9, 3:53 PM)30.08 "Hg (Aug 9, 3:53 PM)
Low66 °F (Aug 15, 5:53 AM)36% (Aug 15, 3:53 PM)29.79 "Hg (Aug 19, 2:53 AM)
Average80 °F78%29.97 "Hg
* Reported Aug 7 4:53 PM — Aug 22 4:53 PM, Wilmington, Weather by CustomWeather, © 2014

Note: Actual official high and low records may vary slightly from our data, if they occured in-between our weather recording intervals... More about our weather records

Advertising

Wilmington weather history for previous 24 hours

 ConditionsComfort  
Time TempWeatherWind HumidityBarometerVisibility
4:53 PM
Aug 22
92 °FScattered clouds.5 mph52%29.93 "Hg10 mi
3:53 PM92 °FPartly sunny.8 mph56%29.95 "Hg10 mi
2:53 PM95 °FPassing clouds.13 mph47%29.96 "Hg10 mi
1:53 PM94 °FSunny.7 mph51%29.98 "Hg10 mi
12:53 PM92 °FSunny.9 mph52%29.99 "Hg10 mi
11:53 AM91 °FSunny.8 mph54%30.02 "Hg10 mi
10:53 AM89 °FSunny.7 mph57%30.03 "Hg10 mi
9:53 AM84 °FSunny.6 mph74%30.03 "Hg10 mi
8:53 AM80 °FPartly sunny.5 mph85%30.03 "Hg9 mi
7:53 AM78 °FScattered clouds.5 mph90%30.01 "Hg8 mi
6:53 AM77 °FClear.5 mph94%30.00 "Hg8 mi
5:53 AM77 °FClear.No wind90%29.98 "Hg10 mi
4:53 AM76 °FClear.No wind91%29.99 "Hg10 mi
3:53 AM76 °FClear.No wind94%30.00 "Hg10 mi
2:53 AM77 °FClear.No wind90%30.02 "Hg10 mi
1:53 AM77 °FClear.No wind90%30.02 "Hg10 mi
12:53 AM76 °FClear.No wind94%30.02 "Hg10 mi
11:53 PM
Aug 21
77 °FClear.No wind90%30.03 "Hg10 mi
10:53 PM79 °FClear.3 mph84%30.04 "Hg10 mi
9:53 PM79 °FClear.5 mph84%30.04 "Hg10 mi
8:53 PM80 °FClear.3 mph85%30.03 "Hg10 mi
7:53 PM83 °FSunny.3 mph72%30.02 "Hg10 mi
6:53 PM86 °FSunny.6 mph61%30.01 "Hg10 mi
Weather by CustomWeather, © 2014

See weather overviewHow to use our weather pages